Simultaneous Nadir Overpasses (SNOs) Predictions

Prediction of SNOs between GOES-16 and METOP-B Satellite Orbit:

Table of predicted SNOs for the next 14.0 days since TLE Epoch: 5/23/2025
Index Date Time (GOES-16) GOES-16 Lat,Lon METOP-B Lat,Lon Distance(km) Time Diff (sec)
1 05/25/2025 15:35:55 0.06, -98.52 -0.15, -97.52 113.46 80
2 05/27/2025 03:57:38 -0.06, -99.29 -0.71,-102.18 329.46 80
3 05/28/2025 03:34:20 -0.05, -99.81 0.53, -97.22 294.86 80
4 05/29/2025 15:55:55 0.04,-100.64 0.30,-101.84 137.11 80
5 05/30/2025 15:32:36 0.04,-101.16 -0.88, -96.88 487.33 80
6 06/01/2025 03:51:39 -0.04,-101.93 0.04,-101.53 44.98 80
7 06/02/2025 16:13:14 0.03,-102.77 0.79,-106.16 386.01 80
8 06/03/2025 15:49:56 0.03,-103.30 -0.45,-101.20 239.10 80
9 06/05/2025 04:11:39 -0.03,-104.08 -0.44,-105.85 202.43 80
10 06/06/2025 03:48:21 -0.03,-104.60 0.81,-100.89 422.83 80
